Sioux Falls, SD

9:16 PM CDT on March 28, 2017 (GMT -0500)
Foss

Weather History for KFSD - March, 2013

Change the Weather History Date:

Sunday, March 31, 2013

  Actual Average Record
Temperature  
Mean Temperature 33 °F 40 °F  
Max Temperature 43 °F 51 °F 83 °F (2012)
Min Temperature 22 °F 28 °F 6 °F (1899)
Degree Days  
Heating Degree Days 32 26  
Month to date heating degree days 1153 995  
Since 1 July heating degree days 6772 6845  
Cooling Degree Days 0 0  
Month to date cooling degree days 0 0  
Year to date cooling degree days 0 0  
Moisture  
Dew Point 26 °F    
Average Humidity 73    
Maximum Humidity 100    
Minimum Humidity 46    
Precipitation  
Precipitation T in 0.09 in 3.27 in (2007)
Month to date precipitation 0.88 1.76  
Year to date precipitation 2.23 2.92  
Snow  
Snow T in 0.20 in 9.30 in (1998)
Month to date snowfall 1.5 8.4  
Since 1 July snowfall 27.0 39.9  
Snow Depth 0.00 in    
Sea Level Pressure  
Sea Level Pressure 30.04 in    
Wind  
Wind Speed 14 mph (NNW)    
Max Wind Speed 23 mph    
Max Gust Speed 29 mph    
Visibility 7 miles    
Events Fog , Snow    
T = Trace of Precipitation, MM = Missing Value Source: NWS Daily Summary

Daily Weather History Graph

Daily Weather History Graph

Search for Another Location

Airport or City:

Trip Planner

Search our weather history database for the weather conditions in past years. The results will help you decide how hot, cold, wet, or windy it might be!

Date:

Astronomy

Mar. 31, 2013 Rise Set
Actual Time 7:09 AM CDT 7:52 PM CDT
Civil Twilight 6:41 AM CDT 8:21 PM CDT
Nautical Twilight 6:06 AM CDT 8:56 PM CDT
Astronomical Twilight 5:31 AM CDT 9:31 PM CDT
Moon 12:07 AM CDT (3/31) 9:50 AM CDT (3/31)
Length of Visible Light 13h 40m
Length of Day
12h 42m
Waning Gibbous, 77% of the Moon is Illuminated
Mar 31
Waning Gibbous
Apr 2
Last Quarter
Apr 10
New
Apr 18
First Quarter
Apr 25
Full

Hourly Weather History & Observations

Time (CDT) Temp. Windchill Dew Point Humidity Pressure Visibility Wind Dir Wind Speed Gust Speed Precip Events Conditions
12:41 AM 33.8 °F 28.6 °F 33.8 °F 100% 29.94 in 0.2 mi NNW 5.8 mph - N/A Fog Fog
12:56 AM 34.0 °F 27.2 °F 33.1 °F 96% 29.98 in 0.2 mi North 8.1 mph - N/A Fog Fog
1:12 AM 33.8 °F 25.8 °F 33.8 °F 100% 29.97 in 0.5 mi NW 10.4 mph - N/A Fog Fog
1:33 AM 33.8 °F 26.4 °F 33.8 °F 100% 29.97 in 2.0 mi NW 9.2 mph - N/A   Overcast
1:47 AM 33.8 °F 25.3 °F 33.8 °F 100% 29.97 in 5.0 mi NNW 11.5 mph - N/A   Overcast
1:56 AM 34.0 °F 25.5 °F 34.0 °F 100% 30.00 in 5.0 mi NNW 11.5 mph - N/A   Overcast
2:22 AM 33.8 °F 27.7 °F 33.8 °F 100% 29.97 in 6.0 mi NW 6.9 mph - N/A   Overcast
2:56 AM 33.1 °F 27.7 °F 33.1 °F 100% 29.99 in 5.0 mi WNW 5.8 mph - N/A   Mostly Cloudy
3:56 AM 33.1 °F 26.9 °F 32.0 °F 96% 29.97 in 6.0 mi WNW 6.9 mph - N/A   Overcast
4:56 AM 32.0 °F 24.8 °F 30.9 °F 96% 29.95 in 6.0 mi West 8.1 mph - N/A   Clear
5:40 AM 32.0 °F 25.6 °F 30.2 °F 93% 29.93 in 3.0 mi West 6.9 mph - N/A   Partly Cloudy
5:56 AM 32.0 °F 23.6 °F 30.9 °F 96% 29.96 in 3.0 mi West 10.4 mph - N/A   Partly Cloudy
6:56 AM 32.0 °F 24.2 °F 30.0 °F 92% 29.96 in 3.0 mi West 9.2 mph - N/A   Clear
7:56 AM 33.1 °F 24.4 °F 28.9 °F 85% 29.99 in 10.0 mi NW 11.5 mph - N/A   Clear
8:56 AM 35.1 °F 25.5 °F 28.9 °F 78% 30.00 in 10.0 mi NW 15.0 mph - N/A   Clear
9:31 AM 35.6 °F 27.1 °F 28.4 °F 75% 29.98 in 10.0 mi NNW 12.7 mph 21.9 mph N/A   Mostly Cloudy
9:56 AM 37.0 °F 27.7 °F 28.9 °F 73% 30.03 in 10.0 mi NNW 16.1 mph - N/A   Mostly Cloudy
10:56 AM 37.0 °F 27.4 °F 28.0 °F 70% 30.04 in 10.0 mi NW 17.3 mph - N/A   Mostly Cloudy
11:56 AM 39.0 °F 29.6 °F 26.1 °F 60% 30.05 in 10.0 mi NNW 18.4 mph 24.2 mph N/A   Mostly Cloudy
12:21 PM 39.2 °F 29.6 °F 24.8 °F 56% 30.01 in 10.0 mi NNW 19.6 mph 25.3 mph N/A   Scattered Clouds
12:56 PM 39.9 °F 31.4 °F 24.1 °F 53% 30.06 in 10.0 mi NNW 16.1 mph 26.5 mph N/A   Scattered Clouds
1:56 PM 39.9 °F 30.5 °F 24.1 °F 53% 30.06 in 10.0 mi North 19.6 mph 27.6 mph N/A   Scattered Clouds
2:56 PM 41.0 °F 32.5 °F 23.0 °F 49% 30.05 in 10.0 mi North 17.3 mph 25.3 mph N/A   Partly Cloudy
3:56 PM 39.9 °F 30.8 °F 21.9 °F 49% 30.06 in 10.0 mi NNW 18.4 mph 25.3 mph N/A   Mostly Cloudy
4:56 PM 35.1 °F 24.5 °F 23.0 °F 61% 30.08 in 5.0 mi NNW 18.4 mph 21.9 mph 0.00 in Snow Light Snow
5:00 PM 33.8 °F 23.2 °F 24.8 °F 70% 30.03 in 4.0 mi North 17.3 mph 24.2 mph 0.00 in Snow Light Snow
5:03 PM 33.8 °F 22.5 °F 23.0 °F 65% 30.03 in 2.5 mi North 19.6 mph 24.2 mph 0.00 in Snow Light Snow
5:28 PM 32.0 °F 21.6 °F 24.8 °F 75% 30.04 in 3.0 mi North 15.0 mph - 0.00 in Snow Light Snow
5:43 PM 33.8 °F 22.8 °F 21.2 °F 60% 30.05 in 10.0 mi North 18.4 mph 24.2 mph 0.00 in   Overcast
5:56 PM 33.1 °F 23.0 °F 18.0 °F 54% 30.10 in 10.0 mi NNW 15.0 mph - 0.00 in   Overcast
6:56 PM 30.9 °F 19.1 °F 15.1 °F 52% 30.13 in 10.0 mi NNW 18.4 mph - N/A   Overcast
7:56 PM 28.9 °F 17.7 °F 12.9 °F 51% 30.15 in 10.0 mi North 15.0 mph - N/A   Scattered Clouds
8:56 PM 27.0 °F 16.7 °F 17.1 °F 66% 30.19 in 10.0 mi North 11.5 mph - N/A   Scattered Clouds
9:56 PM 26.1 °F 15.6 °F 16.0 °F 66% 30.21 in 10.0 mi North 11.5 mph - N/A   Clear
10:56 PM 24.1 °F 12.5 °F 15.1 °F 69% 30.24 in 10.0 mi North 12.7 mph 20.7 mph N/A   Clear
11:56 PM 23.0 °F 11.7 °F 15.1 °F 72% 30.24 in 10.0 mi North 11.5 mph - N/A   Clear